Weather History for MMMM - October, 2012

Change the Weather History Date:

Wednesday, October 17, 2012

  Actual Average Record
Temperature  
Mean Temperature 64 °F -  
Max Temperature 79 °F 75 °F 85 °F (2013)
Min Temperature 50 °F 49 °F 44 °F (1996)
Growing Degree Days 14 (Base 50)    
Moisture  
Dew Point 55 °F    
Average Humidity 73    
Maximum Humidity 100    
Minimum Humidity 35    
Precipitation  
Precipitation 0.00 in 0.04 in - ()
Sea Level Pressure  
Sea Level Pressure 30.00 in    
Wind  
Wind Speed 1 mph ()    
Max Wind Speed 7 mph    
Max Gust Speed -    
Visibility 6.5 miles    
Events Fog    
Averages and records for this station are not official NWS values.
T = Trace of Precipitation, MM = Missing Value Source: Averaged Metar Reports

Daily Weather History Graph

Daily Weather History Graph

Search for Another Location

Airport or City:

Trip Planner

Search our weather history database for the weather conditions in past years. The results will help you decide how hot, cold, wet, or windy it might be!

Date:

Astronomy

Oct. 17, 2012 Rise Set
Actual Time 7:39 AM CDT 7:18 PM CDT
Civil Twilight 7:17 AM CDT 7:40 PM CDT
Nautical Twilight 6:51 AM CDT 8:06 PM CDT
Astronomical Twilight 6:26 AM CDT 8:32 PM CDT
Moon 9:53 AM CDT (10/17) 9:21 PM CDT (10/17)
Length of Visible Light 12h 23m
Length of Day
11h 39m
Waxing Crescent, 7% of the Moon is Illuminated
Oct 17
Waxing Crescent
Oct 21
First Quarter
Oct 29
Full
Nov 6
Last Quarter
Nov 13
New

Hourly Weather History & Observations

Time (CDT) Temp. Dew Point Humidity Pressure Visibility Wind Dir Wind Speed Gust Speed Precip Events Conditions
12:46 AM 62.6 °F 59.0 °F 88% 29.73 in 6.0 mi Calm Calm - N/A   Clear
1:42 AM 60.8 °F 57.2 °F 88% 30.19 in 6.0 mi Calm Calm - N/A   Clear
2:43 AM 60.8 °F 55.4 °F 82% 30.19 in 6.0 mi Variable 3.5 mph - N/A   Clear
3:46 AM 57.2 °F 53.6 °F 88% 29.75 in 6.0 mi Calm Calm - N/A   Clear
3:55 AM 59 °F 55 °F 82% 29.81 in 5 mi WSW 2.2 mph - -  
4:43 AM 55.4 °F 53.6 °F 94% 30.18 in 5.0 mi Calm Calm - N/A   Clear
5:43 AM 55.4 °F 53.6 °F 94% 30.18 in 5.0 mi Calm Calm - N/A   Clear
6:48 AM 51.8 °F 50.0 °F 94% 29.83 in 5.0 mi Calm Calm - N/A   Partly Cloudy
6:50 AM 56 °F 54 °F 90% 29.88 in 5 mi WSW 2.2 mph - -  
7:53 AM 50.0 °F 50.0 °F 100% 30.22 in 6.0 mi Calm Calm - N/A   Mostly Cloudy
8:44 AM 53.6 °F 53.6 °F 100% 30.23 in 5.0 mi Calm Calm - N/A Fog Patches of Fog
9:41 AM 60.8 °F 57.2 °F 88% 29.84 in 5.0 mi Calm Calm - N/A   Mostly Cloudy
9:50 AM 62 °F 55 °F 71% 29.96 in 6 mi North 2.2 mph - -   Partly Cloudy
10:40 AM 64.4 °F 57.2 °F 77% 30.26 in 6.0 mi Calm Calm - N/A   Mostly Cloudy
11:42 AM 69.8 °F 55.4 °F 60% 30.25 in 7.0 mi ENE 2.3 mph - N/A   Mostly Cloudy
12:46 PM 71.6 °F 55.4 °F 57% 29.80 in 7.0 mi NNW 4.6 mph - N/A   Overcast
12:50 PM 72 °F 56 °F 47% 29.89 in 6 mi ENE 4.5 mph - -   Partly Cloudy
1:46 PM 73.4 °F 55.4 °F 53% 30.19 in 8.0 mi NW 4.6 mph - N/A   Overcast
2:48 PM 75.2 °F 55.4 °F 50% 30.14 in 8.0 mi Calm Calm - N/A   Mostly Cloudy
3:47 PM 75.2 °F 53.6 °F 47% 29.70 in 8.0 mi North 4.6 mph - N/A   Mostly Cloudy
3:50 PM 76 °F 53 °F 35% 29.75 in 7 mi NE 6.7 mph - -   Partly Cloudy
4:42 PM 77.0 °F 51.8 °F 41% 30.12 in 8.0 mi North 3.5 mph - N/A   Mostly Cloudy
5:51 PM 77.0 °F 53.6 °F 44% 30.12 in 8.0 mi Calm Calm - N/A   Mostly Cloudy
6:49 PM 73.4 °F 55.4 °F 53% 29.74 in 8.0 mi Calm Calm - N/A   Mostly Cloudy
6:50 PM 74 °F 52 °F 36% 29.71 in 7 mi NE 4.5 mph - -   Partly Cloudy
7:41 PM 66.2 °F 55.4 °F 68% 30.14 in 8.0 mi Calm Calm - N/A   Scattered Clouds
8:41 PM 60.8 °F 53.6 °F 77% 30.16 in 7.0 mi Calm Calm - N/A   Scattered Clouds
9:41 PM 59.0 °F 53.6 °F 82% 29.81 in 7.0 mi Calm Calm - N/A   Partly Cloudy
9:50 PM 66 °F 59 °F 72% 29.75 in 5 mi South 4.5 mph - -   Partly Cloudy
10:44 PM 55.4 °F 53.6 °F 94% 30.19 in 7.0 mi Calm Calm - N/A   Partly Cloudy
11:46 PM 53.6 °F 53.6 °F 100% 30.19 in 7.0 mi Calm Calm - N/A   Partly Cloudy